STARLINK-5299 (55277 NORAD) Tracking and Keplerian Element Data

This shows tracking and keplerian element data for the satellite.

Feedback or suggestion? Click here.




ElementValue
Catalog55277
NameSTARLINK-5299
Epoch Orbit1724
Epoch Day126.30258209
Epoch Year2023
RAAN142.6767
Inclination69.9979
Eccentricity0.0003578
Argument of Perigee270.6605
Mean Anonmoly89.4145
Mean Motion14.99139436
Decay Rate-9.1E-07
L11 55277U 23010J 23126.30258209 -.00000091 00000+0 23511-6 0 9993
L22 55277 69.9979 142.6767 0003578 270.6605 89.4145 14.99139436 17243



Live tracking and technical data element details for STARLINK-5299 (NORAD 55277). STARLINK-5299 can be tracked NOW for your location showing map with azimuth and elevation plus other details from your city location.







IsCatalogInMostPopularTable: catalog: 55277, numindb: 1
Update: records affected: 1



GetName: 55277 STARLINK-5299

Hit Count: updated at: Sun, 28 May 2023 06:33:27 GMT